Regional Weather Roundup
Issued by NWS Kansas City/Pleasant Hill, MO

Home | Current Version | Previous Version | Text Only | Print | Product List | Glossary On
Versions: 1 2 3 4 5 6 7 8 9 10 11 12 13 14 15 16 17 18 19 20 21 22 23 24 25 26 27 28 29 30 31 32 33 34 35 36 37 38 39 40 41 42 43 44 45 46 47 48 49 50
499
ASUS43 KEAX 040410
RWREAX

WEATHER ROUNDUP FOR EASTERN KANSAS AND NORTHWEST MISSOURI
NATIONAL WEATHER SERVICE KANSAS CITY/PLEASANT HILL MO
1000 PM CST SAT DEC 03 2016

KSZ040-057-103>105-MOZ028-029-037-043-040500-
...KANSAS CITY METROPOLITAN AREA...

CITY           SKY/WX    TMP DP  RH WIND       PRES   REMARKS
K.C. INTL      LGT RAIN  42  34  73 SE6       30.10F
K.C. DOWNTOWN  LGT RAIN  46  36  68 S12       30.11F
LEES SUMMIT    CLOUDY    44  36  73 S13       30.12F
OLATHE - IXD   LGT RAIN  43  39  86 S12       30.11F
OLATHE - OJC   LGT RAIN  42  37  82 S10       30.11S
LAWRENCE       LGT RAIN  42  39  89 E3        30.11S

$$

MOZ001>008-011>017-020>025-030>033-038>040-044>046-053-054-040500-
...NORTHERN AND CENTRAL MISSOURI...

CITY           SKY/WX    TMP DP  RH WIND       PRES   REMARKS
ST. JOSEPH     CLOUDY    40  36  86 CALM      30.12S
MOSBY          CLOUDY    43  32  65 SE6       30.12S
WARRENSBURG    DRIZZLE   41  36  81 S5        30.13F
WHITEMAN AFB   CLOUDY    42  38  83 S8        30.13S
CLINTON        LGT RAIN  41  37  87 SE7       30.15F
SEDALIA        CLOUDY    43  32  65 SE8       30.15F
WARSAW         NOT AVBL
CHILLICOTHE      N/A     42  32  67 VRB7      30.15F
KIRKSVILLE     CLOUDY    39  32  76 SE12      30.17S WCI  32

$$

MOZ041-047>049-056>058-063>065-088>090-097-040500-
...EASTERN AND SOUTHERN MISSOURI...

CITY           SKY/WX    TMP DP  RH WIND       PRES   REMARKS
ST. LOUIS INTL CLOUDY    42  32  67 E9        30.24S
SPIRIT OF STL  CLOUDY    41  33  73 E6        30.23F
COLUMBIA       LGT RAIN  41  32  70 SE7       30.19S
JEFFERSON CITY CLOUDY    42  32  67 E6        30.20F
ROLLA          CLOUDY    40  32  73 SE5       30.17F
OSAGE BEACH    LGT RAIN  40  35  83 SE5       30.18F
SPRINGFIELD    LGT RAIN  39  36  89 E13       30.10F WCI  31
BRANSON        CLOUDY    37  37 100 E9        30.13R FOG     WCI  31
JOPLIN         CLOUDY    41  39  93 MISG      30.10S
WEST PLAINS    MIX PCPN  37  35  92 E8        30.15F WCI  31

$$

IAZ060-094-KSZ022-034>040-054-083-096-NEZ052-066-093-040500-
...KANSAS...SOUTHEAST NEBRASKA AND IOWA...

CITY           SKY/WX    TMP DP  RH WIND       PRES   REMARKS
TOPEKA         LGT RAIN  41  38  89 CALM      30.11S
MANHATTAN      RAIN      41  39  93 S6        30.09S FOG
EMPORIA        LGT RAIN  40  39  97 CALM      30.08F
CHANUTE        LGT RAIN  43  40  89 E9        30.09F FOG
WICHITA        LGT RAIN  41  41 100 CALM      30.07S FOG
OMAHA          LGT SNOW  33  29  85 CALM      30.09F VSB 1
LINCOLN        LGT SNOW  33  32  96 CALM      30.08F FOG
FALLS CITY     LGT RAIN  39  36  89 SE9       30.08F WCI  33
LAMONI         LGT RAIN  39  34  82 SE9       30.11F WCI  33
DES MOINES     LGT RAIN  37  34  89 E10       30.14F WCI  30

$$





USA.gov is the U.S. government's official web portal to all federal, state and local government web resources and services.